Tracking 33176 objects as of 12-Feb-2026
HD Live streaming from Space Station
objects crossing your sky now

STARLINK-5274

Track STARLINK-5274 now!
10-day predictions
STARLINK-5274 is classified as:


NORAD ID: 55395
Int'l Code: 2023-014E
Perigee: 577.1 km
Apogee: 581.3 km
Inclination: 70.0 °
Period: 96.1 minutes
Semi major axis: 6950 km
RCS: Unknown
Launch date: January 31, 2023
Source: United States (US)
Launch site: AIR FORCE WESTERN TEST RANGE (AFWTR)
Your satellite tracking list
Your tracking list is empty




NASA's NSSDC Master Catalog

Two Line Element Set (TLE):
1 55395U 23014E   26043.54903346 -.00000920  00000-0 -69348-4 0  9993
2 55395  70.0017 127.6765 0003041 262.3505  97.7309 14.98328986168298
Source of the keplerian elements: AFSPC